Showing default

FTV 3502, 369

Orbit data source: Space-Track

FTV 3502, 369 is a payload satellite owned by SAFSP (US) in SSO that was launched on Thu, 23 Aug 1962 UTC via an SCOUT X-2M launch vehicle from the Air Force Western Test Range (AFWTR). Payload-class satellites include a variety of spacecraft equipped with specific instruments for various scientific and technological missions. These include communications satellites like Starlink; space stations such as the ISS; scientific satellites like the Hubble; Earth observation satellites from companies like Planet Labs, Umbra, and HawkEye 360; GPS; miniature CubeSats for education and research; and military/defense satellites.

Loading next visibility...
Identifier
369, 1962-039A
Orbit
SSO
Country
Flag of USUS
Related business
Manufacturer
RCA/East Windsor
Mission
Spacecraft
Bus & Motor
P35, Unknown motor
Mass
50 kg wet, 50 kg dry
Launch date (UTC)
1962-08-23 (64 years ago)
Launch vehicle
SCOUT X-2M
Launch site
Air Force Western Test Range (AFWTR)
Object type
Payload
Rocket body
Debris
Shape & HBR
Unknown
Radar Cross Section
Medium (>0.1 m² and <1 m²)

Expand to show TLE details & history
Last TLE update: 10 hours ago

TLE from 10 hours ago
0 FTV 3502
1 00369U 62039A   26104.24594165  .00000768  00000-0  78021-4 0  9990
2 00369  98.4583 183.9232 0078554 337.0545  22.7169 14.92093273406075
Epoch: 2026-04-14T05:54Z
TLE epoch observation values (Epoch: 2026-04-14T05:54:09.358Z)
Latitude
-0.00004°
Longitude
-107.04074°
Altitude
543.983 km
Speed
7.618 km/s
True Right ascension
12h 15m 41s
True Declination
0° 00' 00"
Sunlit
Object was in full shadow at epoch
Visualization orbit readout
Latitude
Unknown
Longitude
Unknown
Altitude
Unknown
Speed
Unknown
Apparent Right ascension
Unknown
Apparent Declination
Unknown
Sunlit
N/A
Visualization observer readout
Local Sidereal Time
22:14:31
Azimuth
Unknown
Elevation
Unknown
Doppler factor
Unknown
Orbital elements
Apogee altitude
643.185 km
Perigee altitude
533.735 km
Semi-major axis
6,966.597 km
Eccentricity
0.00786
Inclination
98.4583°
RAAN
183.9232°
Arg. of periapsis
337.0545°
True anomaly
23.0677°
Mean anomaly
22.7169°
Eccentric anomaly
22.89198°
Mean motion
3.73261 °/min
Orbital period
96.45 mins
BSTAR
0.000078021
Loading maneuver chart data...
Computing Atmospheric mass density...
Loading historical data...
Loading historical data...
Loading historical data...
Loading historical data...
Loading historical data...
Loading historical data...
Loading historical data...
Other satellites on launch #39 in the year 1962 (1962-08-23 UTC)

Documentation

Showing up to 5 results
|